Flag for France Past Weather in Boulogne-Billancourt, Île-de-France, France — Yesterday and Last 2 Weeks

Now
73 °F

Passing clouds.


Feels Like: 76 °F
Forecast: 65 / 77 °F
Wind: 1 mph from North

Location: Paris-Orly

Current Time: Jul 24, 2016 at 11:00:31 AM

Latest Report: Jul 24, 2016 at 10:30 AM


Visibility: N/A

Pressure: 30.18 "Hg

Humidity: 61%

Dew Point: 59 °F

Location of Boulogne-BillancourtLocation

Past Weather in Boulogne-Billancourt — Graph

°F

Boulogne-Billancourt Temperature Yesterday

Maximum temperature yesterday: 81 °F (at 3:00 PM)
Minimum temperature yesterday: 63 °F (at 5:30 AM)
Average temperature yesterday: 72 °F

High & Low Weather Summary for the Past Weeks

 TemperatureHumidityPressure
High95 °F (Jul 19, 6:00 PM)100% (Jul 13, 12:00 AM)30.36 "Hg (Jul 13, 12:00 AM)
Low48 °F (Jul 15, 6:00 AM)31% (Jul 10, 6:00 PM)29.83 "Hg (Jul 10, 7:00 PM)
Average70 °F64%30.09 "Hg
* Reported Jul 9 9:00 AM — Jul 24 9:30 AM, Boulogne-Billancourt, Weather by CustomWeather, © 2016

Note: Actual official high and low records may vary slightly from our data, if they occured in-between our weather recording intervals... More about our weather records

Advertising

Boulogne-Billancourt Weather History for the Previous 24 Hours

Scroll right to see more
 ConditionsComfort  
Time TempWeatherWind HumidityBarometerVisibility
9:30 AM
Sun, Jul 24
70 °FSunny.3 mph64%30.18 "Hg10 mi
9:00 AM68 °FSunny.2 mph69%30.15 "Hg10 mi
8:30 AM66 °FSunny.2 mph78%30.15 "Hg10 mi
8:00 AM64 °FSunny.No wind78%30.15 "Hg10 mi
7:30 AM61 °FSunny.1 mph88%30.15 "Hg10 mi
7:00 AM59 °FClear.2 mph88%30.15 "Hg10 mi
6:30 AM57 °FClear.2 mph94%30.15 "Hg10 mi
6:00 AM57 °FClear.No wind88%30.15 "Hg10 mi
5:30 AM59 °FClear.No wind82%30.15 "Hg10 mi
5:00 AM61 °FClear.No wind83%30.15 "Hg10 mi
4:30 AM63 °FClear.No wind77%30.15 "Hg10 mi
4:00 AM61 °FClear.1 mph83%30.18 "Hg10 mi
3:30 AM63 °FClear.5 mph77%30.15 "Hg10 mi
3:00 AM63 °FClear.3 mph77%30.18 "Hg10 mi
2:30 AM64 °FClear.5 mph73%30.18 "Hg10 mi
2:00 AM64 °FClear.8 mph73%30.18 "Hg10 mi
1:30 AM66 °FClear.9 mph68%30.18 "Hg10 mi
1:00 AM66 °FClear.9 mph73%30.18 "Hg10 mi
12:30 AM68 °FClear.7 mph69%30.18 "Hg10 mi
12:00 AM70 °FClear.8 mph64%30.15 "Hg10 mi
11:30 PM
Sat, Jul 23
70 °FClear.10 mph64%30.15 "Hg10 mi
11:00 PM72 °FClear.10 mph61%30.15 "Hg10 mi
10:30 PM73 °FSunny.9 mph57%30.15 "Hg10 mi
10:00 PM73 °FSunny.10 mph57%30.12 "Hg10 mi
9:30 PM75 °FSunny.13 mph54%30.12 "Hg10 mi
9:00 PM77 °FSunny.13 mph51%30.12 "Hg10 mi
8:30 PM77 °FPassing clouds.13 mph51%30.09 "HgN/A
8:00 PM77 °FPassing clouds.12 mph51%30.09 "HgN/A
7:30 PM77 °FPassing clouds.12 mph51%30.09 "HgN/A
7:00 PM79 °FPassing clouds.13 mph48%30.09 "HgN/A
6:30 PM81 °FPassing clouds.12 mph45%30.09 "HgN/A
6:00 PM79 °FPassing clouds.9 mph48%30.09 "HgN/A
5:30 PM79 °FPassing clouds.12 mph45%30.09 "HgN/A
5:00 PM81 °FPassing clouds.9 mph42%30.09 "HgN/A
4:30 PM81 °FPassing clouds.12 mph42%30.12 "HgN/A
4:00 PM81 °FPassing clouds.8 mph45%30.12 "HgN/A
3:30 PM79 °FPassing clouds.9 mph45%30.12 "HgN/A
3:00 PM81 °FPassing clouds.14 mph45%30.12 "HgN/A
2:30 PM79 °FPassing clouds.9 mph48%30.12 "HgN/A
2:00 PM79 °FScattered clouds.12 mph48%30.12 "HgN/A
1:30 PM77 °FScattered clouds.10 mph47%30.12 "HgN/A
1:00 PM77 °FScattered clouds.10 mph47%30.15 "HgN/A
12:30 PM75 °FScattered clouds.10 mph54%30.12 "HgN/A
12:00 PM73 °FScattered clouds.9 mph53%30.15 "HgN/A
11:30 AM72 °FPassing clouds.9 mph61%30.12 "HgN/A
Weather by CustomWeather, © 2016

See weather overviewHow to use our weather pages